�������C�����ː����j�^�v���󋵏��
Date,Time,Cs137(Bq/L),Cs134(Bq/L),�S��(Bq/L)
2016/10/15,00:00,0.64,0.043,ND
2016/10/15,00:10,0.63,0.039,ND
2016/10/15,00:20,0.61,0.042,ND
2016/10/15,00:30,0.59,0.045,ND
2016/10/15,00:40,0.59,0.044,ND
2016/10/15,00:50,0.57,0.048,ND
2016/10/15,01:00,0.55,0.049,ND
2016/10/15,01:10,0.58,0.050,ND
2016/10/15,01:20,0.58,0.053,ND
2016/10/15,01:30,0.58,0.043,ND
2016/10/15,01:40,0.57,0.043,ND
2016/10/15,01:50,0.59,0.050,ND
2016/10/15,02:00,0.60,0.056,ND
2016/10/15,02:10,0.60,0.058,ND
2016/10/15,02:20,0.62,0.056,ND
2016/10/15,02:30,0.64,0.056,ND
2016/10/15,02:40,0.66,0.066,ND
2016/10/15,02:50,0.67,0.077,ND
2016/10/15,03:00,0.69,0.073,ND
2016/10/15,03:10,0.71,0.070,ND
2016/10/15,03:20,0.70,0.075,ND
2016/10/15,03:30,0.72,0.076,ND
2016/10/15,03:40,0.74,0.078,ND
2016/10/15,03:50,0.75,0.097,ND
2016/10/15,04:00,0.76,0.055,ND
2016/10/15,04:10,0.74,0.065,ND
2016/10/15,04:20,0.77,0.066,ND
2016/10/15,04:30,0.77,0.071,ND
2016/10/15,04:40,0.81,0.066,ND
2016/10/15,04:50,0.82,0.080,ND
2016/10/15,05:00,0.86,0.096,ND
2016/10/15,05:10,0.89,0.097,ND
2016/10/15,05:20,0.93,0.094,ND
2016/10/15,05:30,0.94,0.11,ND
2016/10/15,05:40,0.96,0.11,ND
2016/10/15,05:50,0.99,0.10,ND
2016/10/15,06:00,0.96,0.11,ND
2016/10/15,06:10,0.97,0.094,ND
2016/10/15,06:20,0.92,0.13,ND
2016/10/15,06:30,0.93,0.13,ND
2016/10/15,06:40,0.95,0.13,ND
2016/10/15,06:50,0.92,0.13,ND
2016/10/15,07:00,0.95,0.13,ND
2016/10/15,07:10,0.98,0.13,ND
2016/10/15,07:20,1.0,0.13,ND
2016/10/15,07:30,1.0,0.12,ND
2016/10/15,07:40,1.0,0.11,ND
2016/10/15,07:50,0.98,0.12,ND
2016/10/15,08:00,0.92,0.13,ND
2016/10/15,08:10,0.93,0.13,ND
2016/10/15,08:20,0.90,0.14,ND
2016/10/15,08:30,0.89,0.14,ND
2016/10/15,08:40,0.90,0.15,ND
2016/10/15,08:50,0.93,0.14,ND
2016/10/15,09:00,0.94,0.14,ND
2016/10/15,09:10,0.94,0.14,ND
2016/10/15,09:20,0.93,0.13,ND
2016/10/15,09:30,0.91,0.13,ND
2016/10/15,09:40,0.89,0.13,ND
2016/10/15,09:50,0.88,0.13,ND
2016/10/15,10:00,0.87,0.13,ND
2016/10/15,10:10,0.87,0.12,ND
2016/10/15,10:20,0.89,0.11,ND
2016/10/15,10:30,0.89,0.10,ND
2016/10/15,10:40,0.88,0.10,ND
2016/10/15,10:50,0.88,0.099,ND
2016/10/15,11:00,0.98,0.071,ND
2016/10/15,11:10,0.85,0.11,ND
2016/10/15,11:20,0.86,0.097,ND
2016/10/15,11:30,0.80,0.13,ND
2016/10/15,11:40,0.80,0.13,ND
2016/10/15,11:50,0.82,0.11,ND
2016/10/15,12:00,0.83,0.095,ND
2016/10/15,12:10,0.83,0.095,ND
2016/10/15,12:20,0.79,0.12,ND
2016/10/15,12:30,0.78,0.12,ND
2016/10/15,12:40,0.74,0.12,ND
2016/10/15,12:50,0.75,0.12,ND
2016/10/15,13:00,0.76,0.12,ND
2016/10/15,13:10,0.85,0.079,ND
2016/10/15,13:20,0.74,0.11,ND
2016/10/15,13:30,0.74,0.099,ND
2016/10/15,13:40,0.75,0.086,ND
2016/10/15,13:50,0.72,0.083,ND
2016/10/15,14:00,0.68,0.090,ND
2016/10/15,14:10,0.67,0.081,ND
2016/10/15,14:20,0.67,0.076,ND
2016/10/15,14:30,0.62,0.081,ND
2016/10/15,14:40,0.64,0.072,ND
2016/10/15,14:50,0.65,0.063,ND
2016/10/15,15:00,0.67,0.057,ND
2016/10/15,15:10,0.66,0.062,ND
2016/10/15,15:20,0.65,0.065,ND
2016/10/15,15:30,0.67,0.070,ND
2016/10/15,15:40,0.63,0.076,ND
2016/10/15,15:50,0.65,0.068,ND
2016/10/15,16:00,0.65,0.063,ND
2016/10/15,16:10,0.64,0.060,ND
2016/10/15,16:20,0.63,0.060,ND
2016/10/15,16:30,0.63,0.065,ND
2016/10/15,16:40,0.67,0.064,ND
2016/10/15,16:50,0.66,0.080,ND
2016/10/15,17:00,0.66,0.087,ND
2016/10/15,17:10,0.68,0.098,ND
2016/10/15,17:20,0.70,0.097,ND
2016/10/15,17:30,0.73,0.094,ND
2016/10/15,17:40,0.76,0.091,ND
2016/10/15,17:50,0.76,0.083,ND
2016/10/15,18:00,0.77,0.078,ND
2016/10/15,18:10,0.78,0.072,ND
2016/10/15,18:20,0.80,0.081,ND
2016/10/15,18:30,0.81,0.072,ND
2016/10/15,18:40,0.80,0.080,ND
2016/10/15,18:50,0.81,0.080,ND
2016/10/15,19:00,0.82,0.085,ND
2016/10/15,19:10,0.84,0.094,ND
2016/10/15,19:20,0.87,0.092,ND
2016/10/15,19:30,0.89,0.10,ND
2016/10/15,19:40,0.93,0.11,ND
2016/10/15,19:50,0.97,0.11,ND
2016/10/15,20:00,1.0,0.11,ND
2016/10/15,20:10,1.0,0.11,ND
2016/10/15,20:20,1.0,0.12,ND
2016/10/15,20:30,0.99,0.13,ND
2016/10/15,20:40,1.0,0.13,ND
2016/10/15,20:50,1.0,0.13,ND
2016/10/15,21:00,1.1,0.12,ND
2016/10/15,21:10,1.1,0.14,ND
2016/10/15,21:20,1.1,0.14,ND
2016/10/15,21:30,1.1,0.12,ND
2016/10/15,21:40,1.1,0.12,ND
2016/10/15,21:50,1.0,0.12,ND
2016/10/15,22:00,1.0,0.12,ND
2016/10/15,22:10,0.98,0.11,ND
2016/10/15,22:20,0.97,0.11,ND
2016/10/15,22:30,0.94,0.12,ND
2016/10/15,22:40,0.95,0.12,ND
2016/10/15,22:50,0.95,0.13,ND
2016/10/15,23:00,0.94,0.12,ND
2016/10/15,23:10,0.95,0.12,ND
2016/10/15,23:20,0.93,0.11,ND
2016/10/15,23:30,0.92,0.099,ND
2016/10/15,23:40,0.90,0.094,ND
2016/10/15,23:50,0.87,0.089,ND
